Location: Paris
(48.6709°N, 2.3750°E)
Time: 01:10:10
(UTC+02:00)

ISS - Visible Passes

Search period start: 26 October 2021 00:00
Search period end: 04 November 2021 23:00
Orbit: 417 x 423 km, 51.6° (Epoch: 25 October)

Date Brightness Start Highest point End Pass type
(mag) Time Alt. Az. Time Alt. Az. Time Alt. Az.
26 Oct -0.6 05:32:54 13° ESE 05:32:54 13° ESE 05:33:40 10° E visible
26 Oct -3.6 07:05:54 22° WSW 07:07:54 74° SSE 07:11:16 10° ENE visible
27 Oct -3.1 06:20:50 51° SE 06:20:50 51° SE 06:23:59 10° ENE visible
27 Oct -3.5 07:54:13 10° W 07:57:33 55° N 08:00:53 10° ENE visible
28 Oct -0.8 05:35:41 17° E 05:35:41 17° E 05:36:39 10° E visible
28 Oct -3.7 07:08:40 28° W 07:10:14 65° NNW 07:13:36 10° ENE visible
29 Oct -3.3 06:23:27 61° NE 06:23:27 61° NE 06:26:20 10° ENE visible
29 Oct -3.2 07:56:42 10° WNW 08:00:00 48° N 08:03:17 10° ENE visible
30 Oct -0.8 05:38:11 17° ENE 05:38:11 17° ENE 05:39:03 10° ENE visible
30 Oct -3.3 07:11:10 27° WNW 07:12:40 50° N 07:15:57 10° ENE visible
31 Oct -3.0 05:25:51 47° NNE 05:25:51 47° NNE 05:28:39 10° ENE visible
31 Oct -3.4 06:59:05 10° WNW 07:02:26 56° N 07:05:45 10° E visible
01 Nov -0.7 04:40:31 16° ENE 04:40:31 16° ENE 04:41:21 10° ENE visible
01 Nov -3.3 06:13:30 26° WNW 06:15:05 50° N 06:18:23 10° E visible
02 Nov -2.9 05:28:10 45° NNE 05:28:10 45° NNE 05:31:01 10° ENE visible
02 Nov -3.7 07:01:22 10° WNW 07:04:45 86° NNE 07:08:08 10° ESE visible
03 Nov -0.7 04:42:49 16° ENE 04:42:49 16° ENE 04:43:39 10° ENE visible
03 Nov -3.6 06:15:48 27° WNW 06:17:26 68° NNE 06:20:48 10° E visible
04 Nov -3.1 05:30:29 52° NE 05:30:29 52° NE 05:33:26 10° E visible
04 Nov -3.2 07:03:39 10° WNW 07:06:56 49° SSW 07:10:11 10° SE visible
